[[{"header":{"parameterUnit":"m.s-1","parameterCategory":1,"la1":30.2991,"la2":30.254,"lo1":-89.0895,"lo2":-89.0444,"dy":0.0017,"dx":0.0017,"nx":28,"ny":28,"refTime":"2024-12-19T09:00:00:Z","depth":0,"parameterNumber":2,"parameterNumberName":"U-component_of_WINDS"},"data":[0,0,0,0,0,0,0,0,0,0,0,0,0,0,0,0,0,0,0,0,0,0,0,0,0,0,0,0,0,0,0,0,0,0,0,0,0,0,0,0,0,0,0,0,0,0,0,0,0,0,0,0,0,0,0,0,0,0,-0.7975,-0.7976,0,-0.806,-0.8061,-0.8062,-0.8062,-0.8061,-0.806,-0.8059,-0.8149,-0.8153,-0.8156,0,0,0,0,0,0,0,0,0,0,0,0,0,-0.7815,-0.7818,-0.7975,-0.7976,-0.7977,-0.806,-0.8061,-0.8062,-0.8062,-0.8061,-0.806,-0.8058,-0.8148,-0.8152,-0.8156,0,0,0,0,0,0,0,0,0,0,0,0,0,-0.7891,-0.7819,-0.7975,-0.7987,-0.7989,-0.806,-0.8061,-0.8062,-0.8063,-0.8061,-0.8059,-0.8058,-0.8147,-0.8152,-0.8157,-0.8222,0,0,-0.8173,-0.8175,0,0,0,0,0,0,0,0,-0.7887,-0.7897,-0.7984,-0.7986,-0.7989,-0.8049,-0.8038,-0.8116,-0.8063,-0.8035,-0.8059,-0.8057,-0.8117,-0.8125,-0.8144,-0.8226,-0.823,-0.8173,-0.8176,-0.8178,-0.818,0,0,0,0,0,0,0,-0.7881,-0.7893,-0.8009,-0.7985,-0.7988,-0.7989,-0.7998,-0.8053,-0.8084,-0.8037,-0.8037,-0.8047,-0.8118,-0.8139,-0.8147,-0.8231,-0.8173,-0.8177,-0.8181,-0.8183,-0.837,-0.8372,0,0,0,0,0,0,-0.7873,-0.7889,-0.8006,-0.8011,-0.7932,-0.7993,-0.8003,-0.8031,-0.8084,-0.809,-0.8049,-0.8047,-0.8132,-0.8141,-0.815,-0.823,-0.8178,-0.8183,-0.8186,-0.8368,-0.837,-0.8372,0,0,0,0,0,0,-0.787,-0.7884,-0.8002,-0.795,-0.7965,-0.7998,-0.8029,-0.8034,-0.8055,-0.8092,-0.8098,-0.8064,-0.8131,-0.8143,-0.8204,-0.8233,-0.8185,-0.819,-0.8366,-0.8369,-0.8371,-0.8389,0,0,0,0,0,0,-0.7865,-0.7882,-0.7907,-0.795,-0.7968,-0.8054,-0.8031,-0.8037,-0.8063,-0.8062,-0.8109,-0.8115,-0.813,-0.8196,-0.8209,-0.8239,-0.8194,-0.8363,-0.8367,-0.837,-0.8386,-0.8392,-0.8398,0,0,0,0,0,-0.7859,-0.7909,-0.7908,-0.7922,-0.7999,-0.8056,-0.8066,-0.8082,-0.8066,-0.8091,-0.8115,-0.8113,-0.8227,-0.8202,-0.8217,-0.8249,-0.8362,-0.8366,-0.837,-0.8384,-0.8391,-0.8397,0,0,0,0,0,0,-0.787,-0.7915,-0.7915,-0.798,-0.8014,-0.8056,-0.8088,-0.8089,-0.8129,-0.8127,-0.8145,-0.8156,-0.8217,-0.8239,-0.821,-0.8314,-0.8292,-0.83,-0.8298,-0.8305,-0.8311,-0.8305,-0.8198,0,0,0,0,0,-0.7879,-0.7921,-0.7959,-0.8013,-0.8029,-0.8056,-0.8081,-0.809,-0.8127,-0.8141,-0.817,-0.8206,-0.825,-0.8279,-0.8321,-0.8389,-0.8399,-0.8418,-0.8424,-0.8428,-0.8435,-0.8472,-0.8481,-0.8386,-0.8386,-0.8386,0,0,-0.79,-0.793,-0.7955,-0.8015,-0.8043,-0.8086,-0.8068,-0.8115,-0.8147,-0.8149,-0.8208,-0.823,-0.8272,-0.8336,-0.8366,-0.8357,-0.8463,-0.8433,-0.8437,-0.8441,-0.8478,-0.8487,-0.8495,-0.8389,-0.8389,-0.8388,0,0,-0.796,-0.7987,-0.8035,-0.8062,-0.8103,-0.812,-0.8132,-0.8174,-0.8188,-0.8247,-0.8249,-0.8288,-0.8363,-0.8393,-0.8418,-0.8488,-0.8488,-0.8501,-0.8531,-0.8568,-0.8575,-0.8582,-0.8608,-0.8617,-0.8507,-0.8507,-0.8507,0,-0.7982,-0.8046,-0.806,-0.8106,-0.8133,-0.8134,-0.8183,-0.821,-0.8263,-0.8282,-0.8269,-0.8363,-0.8391,-0.8463,-0.848,-0.85,-0.8514,-0.8496,-0.8573,-0.858,-0.8586,-0.8611,-0.862,-0.8508,-0.8508,-0.8508,-0.8508,0,-0.807,-0.8115,-0.8149,-0.8199,-0.8229,-0.8277,-0.8298,-0.8327,-0.8333,-0.8351,-0.8412,-0.8445,-0.8494,-0.8512,-0.8518,-0.8585,-0.8577,-0.8569,-0.8548,-0.8596,-0.862,-0.863,-0.851,-0.851,-0.8509,-0.8509,0,0,-0.8142,-0.8197,-0.821,-0.8232,-0.8277,-0.8313,-0.836,-0.8407,-0.8432,-0.8468,-0.8509,-0.8571,-0.8564,-0.8592,-0.8601,-0.8633,-0.8687,-0.8621,-0.8622,-0.8633,-0.8763,-0.877,-0.8781,-0.8687,-0.8689,-0.869,-0.876,0,-0.8208,-0.8291,-0.8304,-0.8379,-0.842,-0.8421,-0.8463,-0.8495,-0.8513,-0.8552,-0.8572,-0.8616,-0.8602,-0.8619,-0.8651,-0.8674,-0.8714,-0.8669,-0.8726,-0.8728,-0.8717,-0.8793,-0.8801,-0.8865,-0.8769,-0.877,-0.8771,0,-0.8296,-0.8334,-0.8412,-0.845,-0.8468,-0.8505,-0.8549,-0.8585,-0.8622,-0.8633,-0.8663,-0.8669,-0.8719,-0.8694,-0.8764,-0.8733,-0.8757,-0.8772,-0.8774,-0.8782,-0.8754,-0.8803,-0.8885,-0.8896,-0.8786,-0.8785,-0.8784,0,-0.8341,-0.8411,-0.8467,-0.8486,-0.8532,-0.8559,-0.8579,-0.8614,-0.8641,-0.8679,-0.8697,-0.8741,-0.8765,-0.8799,-0.8817,-0.8797,-0.8885,-0.8862,-0.8897,-0.8896,-0.8917,-0.8916,-0.9005,-0.893,-0.893,-0.8929,-0.8929,0,-0.8415,-0.8463,-0.8488,-0.8522,-0.8576,-0.859,-0.8643,-0.8663,-0.8694,-0.8733,-0.8736,-0.8773,-0.8793,-0.8832,-0.8846,-0.8902,-0.8913,-0.8924,-0.8927,-0.8924,-0.8923,-0.8941,-0.8938,-0.8932,-0.8932,-0.8931,-0.8931,0,-0.8475,-0.8494,-0.8555,-0.8593,-0.8604,-0.8642,-0.8675,-0.8708,-0.8725,-0.8774,-0.8787,-0.8814,-0.886,-0.888,-0.8938,-0.8947,-0.9012,-0.9011,-0.8999,-0.9001,-0.9035,-0.9031,-0.914,-0.9156,-0.9069,-0.907,-0.907,0,-0.8522,-0.8558,-0.86,-0.8626,-0.8647,-0.8688,-0.8715,-0.873,-0.8759,-0.8802,-0.8831,-0.8877,-0.8915,-0.899,-0.9015,-0.9059,-0.9061,-0.9096,-0.9068,-0.9063,-0.9062,-0.9061,-0.9065,-0.9101,-0.9102,-0.9103,-0.9104,0,-0.8602,-0.8609,-0.8648,-0.869,-0.8722,-0.8756,-0.8789,-0.881,-0.883,-0.8862,-0.8909,-0.8938,-0.8996,-0.9042,-0.9088,-0.9109,-0.9111,-0.9112,-0.9122,-0.9121,-0.9113,-0.9118,-0.9015,-0.911,-0.9109,-0.9109,-0.9108,-0.9108,-0.8658,-0.8691,-0.8725,-0.8768,-0.8794,-0.8824,-0.8858,-0.8878,-0.8917,-0.8965,-0.8971,-0.9022,-0.9057,-0.9118,-0.9141,-0.9181,-0.9173,-0.9188,-0.9192,-0.9196,-0.9198,-0.9105,-0.9189,-0.9189,-0.9189,-0.9189,-0.9189,0,-0.874,-0.8761,-0.88,-0.8846,-0.888,-0.8875,-0.8911,-0.894,-0.8984,-0.9016,-0.9053,-0.9107,-0.9152,-0.918,-0.9225,-0.9251,-0.9253,-0.9263,-0.9262,-0.9267,-0.9203,-0.919,-0.9261,-0.9261,-0.9261,-0.9261,-0.9261,-0.9261,-0.8786,-0.8841,-0.8852,-0.892,-0.8941,-0.899,-0.9011,-0.9039,-0.9065,-0.9125,-0.9161,-0.9179,-0.9209,-0.9256,-0.9297,-0.9304,-0.9321,-0.9332,-0.9338,-0.9279,-0.9271,-0.9264,-0.9252,-0.9335,-0.9335,-0.9399,-0.94,-0.94]},{"header":{"parameterUnit":"m.s-1","parameterCategory":1,"la1":30.2991,"la2":30.254,"lo1":-89.0895,"lo2":-89.0444,"dy":0.0017,"dx":0.0017,"nx":28,"ny":28,"refTime":"2024-12-19T09:00:00:Z","depth":0,"parameterNumber":3,"parameterNumberName":"V-component_of_WINDS"},"data":[0,0,0,0,0,0,0,0,0,0,0,0,0,0,0,0,0,0,0,0,0,0,0,0,0,0,0,0,0,0,0,0,0,0,0,0,0,0,0,0,0,0,0,0,0,0,0,0,0,0,0,0,0,0,0,0,0,0,-4.8247,-4.8249,0,-4.8394,-4.8396,-4.8397,-4.8389,-4.8387,-4.8385,-4.8383,-4.8535,-4.854,-4.8546,0,0,0,0,0,0,0,0,0,0,0,0,0,-4.7963,-4.7969,-4.8247,-4.8249,-4.8251,-4.8394,-4.8396,-4.8398,-4.8389,-4.8387,-4.8384,-4.8382,-4.8533,-4.854,-4.8547,0,0,0,0,0,0,0,0,0,0,0,0,0,-4.8096,-4.797,-4.8247,-4.8264,-4.8267,-4.8393,-4.8396,-4.8398,-4.839,-4.8387,-4.8384,-4.8381,-4.853,-4.8539,-4.8548,-4.8667,0,0,-4.8576,-4.8579,0,0,0,0,0,0,0,0,-4.8089,-4.8106,-4.826,-4.8263,-4.8266,-4.837,-4.8351,-4.8488,-4.8391,-4.8343,-4.8383,-4.8379,-4.8482,-4.8495,-4.853,-4.8674,-4.8681,-4.8576,-4.8582,-4.8586,-4.8588,0,0,0,0,0,0,0,-4.8079,-4.81,-4.8305,-4.8262,-4.8266,-4.8265,-4.8281,-4.8377,-4.8429,-4.8347,-4.8347,-4.8364,-4.8484,-4.8521,-4.8533,-4.8683,-4.8576,-4.8584,-4.859,-4.8593,-4.8937,-4.8941,0,0,0,0,0,0,-4.8066,-4.8093,-4.83,-4.831,-4.8168,-4.8273,-4.829,-4.834,-4.8428,-4.8438,-4.8367,-4.8363,-4.8507,-4.8523,-4.8539,-4.8687,-4.8586,-4.8594,-4.8599,-4.8933,-4.8938,-4.8942,0,0,0,0,0,0,-4.806,-4.8085,-4.8295,-4.8201,-4.8228,-4.8281,-4.8337,-4.8345,-4.8382,-4.8443,-4.8452,-4.8395,-4.8505,-4.8526,-4.8636,-4.8692,-4.8598,-4.8606,-4.8929,-4.8935,-4.894,-4.8983,0,0,0,0,0,0,-4.8052,-4.8082,-4.8127,-4.8202,-4.8233,-4.8389,-4.8341,-4.835,-4.8397,-4.8394,-4.8472,-4.8482,-4.8504,-4.8623,-4.8645,-4.8703,-4.8613,-4.8924,-4.8932,-4.8938,-4.8977,-4.8989,-4.9,0,0,0,0,0,-4.8042,-4.8133,-4.813,-4.8155,-4.829,-4.8392,-4.841,-4.8433,-4.8402,-4.8448,-4.8488,-4.8479,-4.8682,-4.8634,-4.8659,-4.872,-4.8921,-4.893,-4.8938,-4.8971,-4.8987,-4.9,0,0,0,0,0,0,-4.8063,-4.8143,-4.814,-4.8258,-4.8318,-4.839,-4.8449,-4.8448,-4.8519,-4.8513,-4.854,-4.8558,-4.8669,-4.8705,-4.8651,-4.8842,-4.8798,-4.8811,-4.8815,-4.883,-4.8841,-4.8831,-4.8621,0,0,0,0,0,-4.8081,-4.8157,-4.8223,-4.8321,-4.8351,-4.8395,-4.844,-4.8454,-4.8517,-4.8543,-4.859,-4.8653,-4.8731,-4.8782,-4.8857,-4.8982,-4.9,-4.9036,-4.9048,-4.9057,-4.9069,-4.9141,-4.9159,-4.8969,-4.8969,-4.8969,0,0,-4.812,-4.8173,-4.8219,-4.8326,-4.8375,-4.8454,-4.8417,-4.8501,-4.8561,-4.8556,-4.8664,-4.8701,-4.8773,-4.8892,-4.8946,-4.8926,-4.9126,-4.9068,-4.9075,-4.9082,-4.9152,-4.917,-4.9186,-4.8975,-4.8974,-4.8973,0,0,-4.8232,-4.8279,-4.8367,-4.8416,-4.849,-4.8519,-4.8541,-4.8614,-4.8639,-4.8747,-4.8746,-4.8818,-4.8951,-4.9003,-4.9047,-4.9182,-4.9178,-4.9206,-4.9267,-4.9337,-4.9352,-4.9365,-4.9416,-4.9434,-4.9217,-4.9218,-4.9218,0,-4.8271,-4.8389,-4.8412,-4.8499,-4.8547,-4.8547,-4.8638,-4.8685,-4.8779,-4.8814,-4.8789,-4.8958,-4.9006,-4.9139,-4.9172,-4.9207,-4.9234,-4.9198,-4.9348,-4.9361,-4.9374,-4.9423,-4.9442,-4.9221,-4.922,-4.922,-4.922,0,-4.8436,-4.8518,-4.8581,-4.8673,-4.8728,-4.8816,-4.8854,-4.8908,-4.8917,-4.8949,-4.9062,-4.912,-4.9208,-4.924,-4.9249,-4.9376,-4.9361,-4.9341,-4.9297,-4.9395,-4.9442,-4.9461,-4.9225,-4.9224,-4.9223,-4.9222,0,0,-4.8564,-4.867,-4.8693,-4.8736,-4.8819,-4.8883,-4.8973,-4.9059,-4.9106,-4.9172,-4.9249,-4.9363,-4.9347,-4.9397,-4.9412,-4.9473,-4.9581,-4.9447,-4.9449,-4.9472,-4.9727,-4.9742,-4.9764,-4.9578,-4.9581,-4.9584,-4.9722,0,-4.8686,-4.8844,-4.8869,-4.9008,-4.9086,-4.9089,-4.9167,-4.9227,-4.926,-4.9332,-4.9369,-4.9451,-4.9421,-4.9452,-4.9513,-4.9554,-4.9632,-4.9545,-4.9652,-4.9656,-4.9636,-4.9787,-4.9804,-4.9931,-4.974,-4.9743,-4.9745,0,-4.885,-4.8921,-4.9069,-4.9144,-4.9178,-4.9247,-4.933,-4.9398,-4.9468,-4.9488,-4.9545,-4.9554,-4.9649,-4.96,-4.9732,-4.9672,-4.9718,-4.9745,-4.9751,-4.9763,-4.9708,-4.9807,-4.9971,-4.9991,-4.9773,-4.9771,-4.9769,0,-4.8932,-4.9065,-4.9171,-4.9208,-4.9297,-4.9347,-4.9387,-4.9453,-4.9505,-4.9577,-4.9612,-4.9694,-4.974,-4.9805,-4.9837,-4.9798,-4.9969,-4.9921,-4.999,-4.999,-5.0027,-5.0025,-5.0204,-5.0053,-5.0053,-5.0052,-5.0052,0,-4.9067,-4.9158,-4.921,-4.9276,-4.9379,-4.9407,-4.9508,-4.9547,-4.9606,-4.9681,-4.9687,-4.9757,-4.9794,-4.987,-4.9896,-5.0004,-5.0023,-5.0044,-5.005,-5.0045,-5.0043,-5.0076,-5.0069,-5.0057,-5.0056,-5.0055,-5.0054,0,-4.9177,-4.9215,-4.9332,-4.9408,-4.9429,-4.9502,-4.9568,-4.9633,-4.9666,-4.9761,-4.9785,-4.9838,-4.9928,-4.9966,-5.0076,-5.0093,-5.0218,-5.0216,-5.0195,-5.0198,-5.0266,-5.026,-5.0475,-5.0506,-5.0331,-5.0333,-5.0334,0,-4.9262,-4.9332,-4.9416,-4.9467,-4.9509,-4.9589,-4.9643,-4.9674,-4.9729,-4.9815,-4.9871,-4.9961,-5.0035,-5.018,-5.0229,-5.0314,-5.0316,-5.0386,-5.0329,-5.0323,-5.0321,-5.0318,-5.0326,-5.0397,-5.0398,-5.04,-5.0401,0,-4.9409,-4.9425,-4.9501,-4.9586,-4.965,-4.9717,-4.9783,-4.9824,-4.9866,-4.9928,-5.0021,-5.0079,-5.0193,-5.0284,-5.0373,-5.0415,-5.0417,-5.0418,-5.044,-5.0436,-5.0422,-5.0434,-5.0226,-5.0414,-5.0412,-5.0411,-5.0411,-5.041,-4.9511,-4.9575,-4.9645,-4.9731,-4.9784,-4.9847,-4.9913,-4.9955,-5.0033,-5.0128,-5.0142,-5.0242,-5.0313,-5.0432,-5.0479,-5.0558,-5.0541,-5.0571,-5.0579,-5.0586,-5.0592,-5.0407,-5.0574,-5.0574,-5.0574,-5.0573,-5.0573,0,-4.9661,-4.9707,-4.9786,-4.9879,-4.9947,-4.9942,-5.0016,-5.0074,-5.0162,-5.0227,-5.0301,-5.0409,-5.0498,-5.0555,-5.0645,-5.0698,-5.0701,-5.0721,-5.0718,-5.0729,-5.0601,-5.0575,-5.0717,-5.0717,-5.0717,-5.0717,-5.0717,-5.0717,-4.9748,-4.9857,-4.9882,-5.0018,-5.0064,-5.0162,-5.0205,-5.0264,-5.0317,-5.0437,-5.0511,-5.0548,-5.0611,-5.0706,-5.0788,-5.0803,-5.0837,-5.0859,-5.0873,-5.0752,-5.0737,-5.0723,-5.0699,-5.0865,-5.0865,-5.0994,-5.0996,-5.0996]}]]